METAR Formatted Surface Weather Observation
Issued by NWS

Home | Current Version | Previous Version | Text Only | Print | Product List | Glossary On
Versions: 1 2 3 4 5 6 7 8 9 10 11 12 13 14 15 16
000
SAUS46 KLOX 230703
MTRNZY
SPECI KNZY 230702Z AUTO 00000KT 10SM SCT012 20/17 A2989 RMK AO2
T02000167



USA.gov is the U.S. government's official web portal to all federal, state and local government web resources and services.